Meteo pe oră la Bolshie Dvorcy

Astăzi, 9 Mai, Duminică

Timp Temperatura Precipitaţii Vânt Presiune Umiditate
00:00 +1°C° 0 mm 3 m/s 752 mmHg 93%
01:00 +1°C° 0 mm 3 m/s 752 mmHg 94%
02:00 +1°C° 0 mm 2 m/s 752 mmHg 94%
03:00 +1°C° 0 mm 2 m/s 753 mmHg 94%
04:00 +1°C° 0 mm 2 m/s 753 mmHg 95%
05:00 +1°C° 0 mm 2 m/s 753 mmHg 95%
06:00 +3°C° 0 mm 2 m/s 754 mmHg 88%
07:00 +5°C° 0 mm 2 m/s 754 mmHg 82%
08:00 +7°C° 0 mm 2 m/s 755 mmHg 75%
09:00 +8°C° 0 mm 2 m/s 755 mmHg 68%
10:00 +10°C° 0 mm 2 m/s 755 mmHg 61%
11:00 +12°C° 0 mm 2 m/s 755 mmHg 54%
12:00 +13°C° 0 mm 2 m/s 755 mmHg 50%
13:00 +14°C° 0 mm 2 m/s 755 mmHg 46%
14:00 +15°C° 0 mm 2 m/s 755 mmHg 43%
15:00 +15°C° 0 mm 2 m/s 754 mmHg 43%
16:00 +15°C° 0 mm 2 m/s 754 mmHg 43%
17:00 +15°C° 0 mm 1 m/s 754 mmHg 43%
18:00 +13°C° 0 mm 2 m/s 754 mmHg 49%
19:00 +10°C° 0 mm 2 m/s 754 mmHg 56%
20:00 +9°C° 0 mm 2 m/s 754 mmHg 62%
21:00 +8°C° 0 mm 2 m/s 755 mmHg 64%
22:00 +7°C° 0 mm 3 m/s 755 mmHg 67%
23:00 +7°C° 0 mm 3 m/s 755 mmHg 69%

Mâine, 10 Mai, Luni

Timp Temperatura Precipitaţii Vânt Presiune Umiditate
00:00 +5°C° 0 mm 3 m/s 755 mmHg 70%
01:00 +5°C° 0 mm 3 m/s 755 mmHg 71%
02:00 +5°C° 0 mm 3 m/s 755 mmHg 71%
03:00 +5°C° 0 mm 3 m/s 755 mmHg 72%
04:00 +4°C° 0 mm 3 m/s 755 mmHg 73%
05:00 +4°C° 0 mm 3 m/s 755 mmHg 75%
06:00 +7°C° 0 mm 3 m/s 755 mmHg 71%
07:00 +8°C° 0 mm 4 m/s 756 mmHg 67%
08:00 +11°C° 0 mm 4 m/s 756 mmHg 63%
09:00 +13°C° 0 mm 4 m/s 756 mmHg 59%
10:00 +15°C° 0 mm 5 m/s 756 mmHg 54%
11:00 +17°C° 0 mm 5 m/s 755 mmHg 50%
12:00 +17°C° 0 mm 5 m/s 755 mmHg 48%
13:00 +19°C° 0 mm 5 m/s 755 mmHg 47%
14:00 +20°C° 0 mm 5 m/s 755 mmHg 45%
15:00 +20°C° 0 mm 5 m/s 755 mmHg 48%
16:00 +20°C° 0 mm 4 m/s 754 mmHg 51%
17:00 +19°C° 0 mm 4 m/s 754 mmHg 54%
18:00 +17°C° 0 mm 4 m/s 754 mmHg 61%
19:00 +14°C° 0 mm 4 m/s 754 mmHg 67%
20:00 +12°C° 0 mm 3 m/s 754 mmHg 74%
21:00 +11°C° 0 mm 3 m/s 754 mmHg 76%
22:00 +11°C° 0 mm 3 m/s 755 mmHg 77%
23:00 +10°C° 0 mm 3 m/s 755 mmHg 79%

Poimâine, 11 Mai, Marţi

Timp Temperatura Precipitaţii Vânt Presiune Umiditate
00:00 +9°C° 0 mm 3 m/s 755 mmHg 80%
01:00 +9°C° 0 mm 3 m/s 755 mmHg 81%
02:00 +8°C° 0 mm 3 m/s 755 mmHg 83%
03:00 +8°C° 0 mm 3 m/s 755 mmHg 83%
04:00 +7°C° 0 mm 3 m/s 755 mmHg 83%
05:00 +7°C° 0 mm 3 m/s 755 mmHg 83%
06:00 +8°C° 0 mm 4 m/s 755 mmHg 76%
07:00 +11°C° 0 mm 4 m/s 755 mmHg 68%
08:00 +12°C° 0 mm 5 m/s 755 mmHg 61%
09:00 +14°C° 0 mm 5 m/s 755 mmHg 55%
10:00 +15°C° 0 mm 5 m/s 754 mmHg 48%
11:00 +17°C° 0 mm 5 m/s 754 mmHg 42%
12:00 +19°C° 0 mm 5 m/s 754 mmHg 40%
13:00 +19°C° 0 mm 5 m/s 753 mmHg 39%
14:00 +20°C° 0 mm 5 m/s 753 mmHg 37%
15:00 +20°C° 0 mm 4 m/s 753 mmHg 42%
16:00 +20°C° 0 mm 4 m/s 752 mmHg 47%
17:00 +20°C° 0 mm 4 m/s 752 mmHg 53%
18:00 +19°C° 0 mm 4 m/s 752 mmHg 60%
19:00 +17°C° 0 mm 4 m/s 752 mmHg 67%
20:00 +14°C° 0 mm 4 m/s 751 mmHg 74%
21:00 +14°C° 0 mm 4 m/s 751 mmHg 77%
22:00 +13°C° 0 mm 4 m/s 751 mmHg 80%
23:00 +13°C° 0 mm 4 m/s 751 mmHg 83%

12 Mai, Miercuri

Timp Temperatura Precipitaţii Vânt Presiune Umiditate
00:00 +12°C° 0 mm 4 m/s 751 mmHg 87%
01:00 +11°C° 0 mm 4 m/s 751 mmHg 91%
02:00 +11°C° 0 mm 4 m/s 750 mmHg 95%
03:00 +10°C° 0 mm 4 m/s 750 mmHg 95%
04:00 +10°C° 0 mm 4 m/s 750 mmHg 96%
05:00 +10°C° 0 mm 4 m/s 750 mmHg 97%
06:00 +10°C° 0 mm 5 m/s 750 mmHg 89%
07:00 +11°C° 0 mm 6 m/s 750 mmHg 82%
08:00 +11°C° 0 mm 6 m/s 750 mmHg 74%
09:00 +13°C° 0 mm 6 m/s 750 mmHg 68%
10:00 +14°C° 0 mm 6 m/s 749 mmHg 61%
11:00 +15°C° 0 mm 7 m/s 749 mmHg 54%
12:00 +15°C° 0 mm 7 m/s 749 mmHg 52%
13:00 +15°C° 0 mm 7 m/s 749 mmHg 50%
14:00 +16°C° 0 mm 7 m/s 748 mmHg 48%
15:00 +15°C° 0 mm 6 m/s 748 mmHg 52%
16:00 +15°C° 0 mm 6 m/s 748 mmHg 55%
17:00 +14°C° 0 mm 6 m/s 747 mmHg 59%
18:00 +13°C° 0 mm 5 m/s 747 mmHg 64%
19:00 +12°C° 0 mm 4 m/s 747 mmHg 70%
20:00 +10°C° 0 mm 3 m/s 747 mmHg 75%
21:00 +10°C° 0 mm 3 m/s 746 mmHg 80%
22:00 +9°C° 0 mm 3 m/s 746 mmHg 85%
23:00 +8°C° 0 mm 2 m/s 746 mmHg 90%

13 Mai, Joi

Timp Temperatura Precipitaţii Vânt Presiune Umiditate
00:00 +7°C° 0 mm 2 m/s 746 mmHg 92%
01:00 +7°C° 0 mm 2 m/s 745 mmHg 94%
02:00 +6°C° 0 mm 2 m/s 745 mmHg 97%
03:00 +6°C° 0 mm 2 m/s 745 mmHg 97%
04:00 +6°C° 0 mm 2 m/s 744 mmHg 97%
05:00 +5°C° 0 mm 2 m/s 744 mmHg 98%
06:00 +7°C° 0 mm 3 m/s 744 mmHg 90%
07:00 +9°C° 0 mm 3 m/s 744 mmHg 83%
08:00 +11°C° 0 mm 4 m/s 744 mmHg 75%
09:00 +12°C° 0 mm 4 m/s 744 mmHg 68%
10:00 +13°C° 0 mm 5 m/s 743 mmHg 61%
11:00 +15°C° 0 mm 5 m/s 743 mmHg 53%
12:00 +13°C° 0 mm 5 m/s 743 mmHg 62%
13:00 +11°C° 0 mm 6 m/s 744 mmHg 71%
14:00 +10°C° 0 mm 6 m/s 744 mmHg 80%
15:00 +9°C° 0 mm 5 m/s 744 mmHg 83%
16:00 +9°C° 0 mm 5 m/s 744 mmHg 85%
17:00 +9°C° 0 mm 5 m/s 744 mmHg 88%
18:00 +10°C° 0 mm 4 m/s 743 mmHg 90%
19:00 +10°C° 0 mm 4 m/s 743 mmHg 91%
20:00 +10°C° 0 mm 4 m/s 743 mmHg 93%
21:00 +10°C° 0 mm 4 m/s 743 mmHg 93%
22:00 +10°C° 0 mm 4 m/s 743 mmHg 93%
23:00 +10°C° 0 mm 3 m/s 743 mmHg 93%

14 Mai, Vineri

Timp Temperatura Precipitaţii Vânt Presiune Umiditate
00:00 +9°C° 0.1 mm 3 m/s 743 mmHg 94%
01:00 +9°C° 0.1 mm 3 m/s 743 mmHg 94%
02:00 +9°C° 0.1 mm 3 m/s 742 mmHg 95%
03:00 +9°C° 0 mm 3 m/s 742 mmHg 95%
04:00 +9°C° 0 mm 3 m/s 742 mmHg 95%
05:00 +10°C° 0 mm 3 m/s 742 mmHg 95%
06:00 +11°C° 0 mm 3 m/s 742 mmHg 91%
07:00 +12°C° 0 mm 3 m/s 743 mmHg 86%
08:00 +13°C° 0 mm 4 m/s 743 mmHg 82%
09:00 +14°C° 0 mm 4 m/s 743 mmHg 77%
10:00 +15°C° 0 mm 4 m/s 743 mmHg 73%
11:00 +17°C° 0 mm 4 m/s 743 mmHg 69%
12:00 +17°C° 0.2 mm 4 m/s 743 mmHg 69%
13:00 +17°C° 0.2 mm 4 m/s 744 mmHg 69%
14:00 +17°C° 0.2 mm 4 m/s 744 mmHg 70%
15:00 +17°C° 0.1 mm 4 m/s 744 mmHg 70%
16:00 +17°C° 0.1 mm 4 m/s 744 mmHg 70%
17:00 +17°C° 0.1 mm 4 m/s 744 mmHg 71%
18:00 +16°C° 0 mm 3 m/s 745 mmHg 77%
19:00 +13°C° 0 mm 3 m/s 745 mmHg 84%
20:00 +13°C° 0 mm 2 m/s 745 mmHg 91%
21:00 +12°C° 0 mm 2 m/s 745 mmHg 92%
22:00 +12°C° 0 mm 2 m/s 746 mmHg 93%
23:00 +10°C° 0 mm 2 m/s 746 mmHg 94%
Arată mai mult

Formular de consimțământ

Meteoprog și furnizorii noștri de servicii pot stoca și accesa date personale, precum cookies, identificatori de dispozitiv sau alte tehnologii similare pe dispozitivul dumneavoastră și procesa astfel de date pentru a personaliza conținutul și reclamele, dar și pentru a oferi caracteristici de social media și pentru a analiza traficul.

  • Stocarea și/sau accesarea informațiilor pe dispozitivul dumneavoastră

    Cookies, identificatori de dispozitiv sau alte informații pot fi stocate sau accesate pe dispozitiv în scopurile indicate mai sus.

  • Reclame și conținut personalizat, evaluarea reclamelor și a conținutului, informații despre audiențe și dezvoltarea produselor

    Reclamele și conținutul pot fi personalizate pe baza unui profil. Pot fi adăugate date suplimentare pentru a personaliza mai bine reclamele și conținutul. Performanța reclamelor și conținutului poate fi măsurată. Pot fi obținute informații despre utilizatorii care au văzut reclamele și conținutul. Aceste date pot fi utilizate pentru a dezvolta sau îmbunătăți experiența utilizatorilor, sistemele și software-ul.

Dând clic pe ‘Sunt de acord’, permiteți utilizarea cookie-urilor menționate, a identificatorilor de dispozitiv, balizelor web sau altor tehnologii similare. Setările pot fi modificate din browser-ul dispozitivului dumneavoastră.

În anumite scopuri, interesele legitime pot prima asupra consimțământului. Puteți citi mai multe informații în acest sens în Politica privind Confidențialitatea Datelor și Cookie.